Roseburg, OR

9:06 AM PST on February 23, 2017 (GMT -0800)
Roseburg Regional

Weather History for KRBG - August, 2014

Change the Weather History Date:

Friday, August 15, 2014

  Actual Average Record
Temperature  
Mean Temperature 76 °F 70 °F  
Max Temperature 86 °F 85 °F 98 °F (2012)
Min Temperature 65 °F 56 °F 45 °F (1972)
Degree Days  
Heating Degree Days 0 0  
Month to date heating degree days 0 0  
Since 1 June heating degree days 42 94  
Since 1 July heating degree days 7 11  
Cooling Degree Days 11 6  
Month to date cooling degree days 159 93  
Year to date cooling degree days 583 336  
Since 1 June cooling degree days 538 316  
Growing Degree Days 26 (Base 50)    
Moisture  
Dew Point 56 °F    
Average Humidity 54    
Maximum Humidity 73    
Minimum Humidity 35    
Precipitation  
Precipitation 0.00 in 0.01 in 0.88 in (1976)
Month to date precipitation 0.03 0.14  
Year to date precipitation 16.65 19.32  
Sea Level Pressure  
Sea Level Pressure 30.01 in    
Wind  
Wind Speed 5 mph (North)    
Max Wind Speed 14 mph    
Max Gust Speed 19 mph    
Visibility 10 miles    
Events      
T = Trace of Precipitation, MM = Missing Value Source: NWS Daily Summary

Daily Weather History Graph

Daily Weather History Graph

Search for Another Location

Airport or City:

Trip Planner

Search our weather history database for the weather conditions in past years. The results will help you decide how hot, cold, wet, or windy it might be!

Date:

Astronomy

Aug. 15, 2014 Rise Set
Actual Time 6:18 AM PDT 8:16 PM PDT
Civil Twilight 5:48 AM PDT 8:46 PM PDT
Nautical Twilight 5:10 AM PDT 9:24 PM PDT
Astronomical Twilight 4:29 AM PDT 10:05 PM PDT
Moon 11:10 PM PDT (8/15) 12:18 PM PDT (8/15)
Length of Visible Light 14h 58m
Length of Day
13h 57m
Waning Gibbous, 68% of the Moon is Illuminated
Aug 15
Waning Gibbous
Aug 17
Last Quarter
Aug 25
New
Sep 2
First Quarter
Sep 8
Full

Hourly Weather History & Observations

Time (PDT) Temp. Heat Index Dew Point Humidity Pressure Visibility Wind Dir Wind Speed Gust Speed Precip Events Conditions
12:53 AM 68.0 °F - 57.0 °F 68% 29.99 in 10.0 mi North 4.6 mph - N/A   Overcast
1:53 AM 66.9 °F - 57.0 °F 70% 29.99 in 10.0 mi NNW 5.8 mph - N/A   Overcast
2:42 AM 66.0 °F - 55.9 °F 70% 30.00 in 10.0 mi NNW 5.8 mph - N/A   Overcast
2:53 AM 66.0 °F - 55.9 °F 70% 29.99 in 10.0 mi NNW 4.6 mph - N/A   Overcast
3:50 AM 66.2 °F - 55.4 °F 68% 30.00 in 10.0 mi North 5.8 mph - N/A   Overcast
3:53 AM 66.0 °F - 55.9 °F 70% 30.00 in 10.0 mi North 5.8 mph - N/A   Overcast
4:53 AM 66.0 °F - 55.9 °F 70% 30.00 in 10.0 mi NNW 3.5 mph - N/A   Overcast
5:50 AM 66.2 °F - 55.4 °F 68% 30.01 in 10.0 mi North 5.8 mph - N/A   Overcast
5:53 AM 66.0 °F - 55.9 °F 70% 30.01 in 10.0 mi North 4.6 mph - N/A   Overcast
6:17 AM 66.0 °F - 55.9 °F 70% 30.01 in 10.0 mi North 6.9 mph - N/A   Overcast
6:53 AM 66.0 °F - 55.9 °F 70% 30.02 in 10.0 mi North 5.8 mph - N/A   Overcast
7:35 AM 66.0 °F - 55.9 °F 70% 30.03 in 10.0 mi North 6.9 mph - N/A   Overcast
7:53 AM 66.0 °F - 55.9 °F 70% 30.03 in 10.0 mi North 5.8 mph - N/A   Overcast
8:53 AM 68.0 °F - 55.9 °F 65% 30.05 in 10.0 mi North 4.6 mph - N/A   Overcast
9:21 AM 69.1 °F - 55.9 °F 63% 30.05 in 10.0 mi North 4.6 mph - N/A   Overcast
9:53 AM 70.0 °F - 55.9 °F 61% 30.05 in 10.0 mi Variable 3.5 mph - N/A   Overcast
10:53 AM 72.0 °F - 55.9 °F 57% 30.05 in 10.0 mi Calm Calm - N/A   Overcast
11:53 AM 73.0 °F - 55.9 °F 55% 30.05 in 10.0 mi ENE 3.5 mph - N/A   Mostly Cloudy
12:53 PM 75.9 °F - 55.9 °F 50% 30.02 in 10.0 mi WSW 4.6 mph - N/A   Clear
1:53 PM 79.0 °F - 55.9 °F 45% 30.01 in 10.0 mi NW 6.9 mph - N/A   Clear
2:53 PM 82.0 °F 81.6 °F 55.9 °F 41% 29.99 in 10.0 mi Calm Calm - N/A   Clear
3:53 PM 84.9 °F 83.7 °F 55.9 °F 37% 29.98 in 10.0 mi NNE 8.1 mph - N/A   Clear
4:53 PM 86.0 °F 84.7 °F 55.9 °F 36% 29.96 in 10.0 mi NNE 8.1 mph - N/A   Clear
5:53 PM 84.9 °F 83.7 °F 55.9 °F 37% 29.97 in 10.0 mi NNE 10.4 mph - N/A   Clear
6:53 PM 82.0 °F 82.0 °F 57.9 °F 44% 29.97 in 10.0 mi NW 9.2 mph - N/A   Clear
7:53 PM 77.0 °F - 59.0 °F 54% 29.99 in 10.0 mi North 6.9 mph - N/A   Clear
8:53 PM 75.0 °F - 57.9 °F 55% 30.01 in 10.0 mi North 9.2 mph - N/A   Clear
10:53 PM 70.0 °F - 57.0 °F 63% 30.04 in 10.0 mi NNE 3.5 mph - N/A   Clear
11:53 PM 68.0 °F - 57.0 °F 68% 30.03 in 10.0 mi Calm Calm - N/A   Clear